STARLINK-32588, 61866

Orbit data source: Space-Track

STARLINK-32588, 61866 is a payload satellite owned by SpaceX/Seattle (US) in LEO that was launched on Thu, 07 Nov 2024 UTC via an FALCON 9 launch vehicle from the Air Force Eastern Test Range (AFETR). Payloads include a variety of satellites, spacecraft, and rockets equipped with specific instruments for various scientific and technological missions. These include communications satellites like Starlink; space stations such as the ISS; scientific satellites like the Hubble; Earth observation satellites from companies like Planet Labs, Umbra, and HawkEye 360; GPS; miniature CubeSats for education and research; and military/defense satellites.

Loading next visibility...
STARLINK-32588 details
Identifier
61866, 2024-202X
Orbit
LEO
Last TLE update10 hours ago
Origin
Flag of USSpaceX/Seattle (US)
ManufacturerSpaceX/Seattle
MissionOperational spacecraft
Bus & MotorSTARLINK V2M, Unknown motor
Mass730 kg wet, ~700 kg dry
Launch date (UTC)
2024-11-07 (1 month ago)
Launch vehicle
FALCON 9
Launch site
Air Force Eastern Test Range (AFETR)
Object type
Payload
Rocket body
Debris
Shape & HBRUnknown
Radar Cross SectionLarge (>1 m²)

Expand to show TLE details & history

TLE from 10 hours ago
0 STARLINK-32588
1 61866U 24202X   24348.53543961 -.00006756  00000-0 -15449-3 0  9996
2 61866  42.9985 275.8910 0000933 258.5792 101.4960 15.40725496  6225
Epoch: 2024-12-13T12:51Z
Definitive object data (Epoch: 2024-12-13T12:51:01.982Z)
Latitude0.00001°
Longitude0.43273°
Altitude443.868 km
Speed7.648 km/s
True Right ascension18h 23m 33s
True Declination0° 00' 00"
Sunlit
Object was in daylight at TLE epoch
Visualization TLE readout
Latitude-17.972°
Longitude-161.78455°
Altitude447.402 km
Speed7.645 km/s
Apparent Right ascension08h 26m 57s
Apparent Declination-29° 15' 59"
Sunlit
Object is in full shadow
Visualization observer readout
Local Sidereal Time21:36:43
Azimuth58.685° ENE
Elevation-72.179°
Doppler factor1
Orbital elements
Apogee altitude446.56 km
Perigee altitude445.287 km
Semi-major axis6,824.06 km
Eccentricity0.0000933
Inclination42.9985°
RAAN275.891°
Arg. of periapsis258.5792°
True anomaly101.50648°
Mean anomaly101.496°
Eccentric anomaly101.50124°
Mean motion3.85016 °/min
BSTAR-0.00015449
Orbital period93.5 mins
Loading maneuver chart data...
Loading historical data...
Loading historical data...
Loading historical data...
Loading historical data...
Loading historical data...
Loading historical data...
Loading historical data...

STARLINK-32588 Visibility forecast

Observer location: undefined°, undefined

Span
Click to sort rows by Start time (UTC) header in descending order
Start Az.
Max El. time (UTC)
Max El. Az.
Max El.
End time (UTC)
End Az.
6 mins2024-12-13 23:59:43.014Z254.426° W2024-12-14 00:02:43.014Z275.556° WNW43.554°2024-12-14 00:05:43.014Z70.554° E
4 mins2024-12-14 01:39:43.014Z298.717° NW2024-12-14 01:41:43.014Z26.946° NE35.642°2024-12-14 01:43:43.014Z71.531° E
5 mins2024-12-14 03:17:43.014Z289.395° WNW2024-12-14 03:19:43.014Z90.868° ESE44.565°2024-12-14 03:22:43.014Z107.635° ESE
4 mins2024-12-14 04:55:43.014Z251.119° W2024-12-14 04:57:43.014Z203.552° SW20.384°2024-12-14 04:59:43.014Z165.371° S
|